Brightest
NORAD ID: 6073
Int'l Code: 1972-023E
Perigee: 213.6 km
Apogee: 3,387.0 km
Inclination: 52.1 °
Period: 122.5 minutes
Semi major axis: 8171 km
Launch date: March 31, 1972
Source: Commonwealth of Independent States (former USSR) (CIS)
Two Line Element Set (TLE):
1 06073U 72023E 13144.47515414 .00026608 38783-5 16710-3 0 607
2 06073 052.0894 228.3802 1941835 322.4153 103.9282 11.75351280179513
Source:
NASA's NSSDC Master Catalog entry for COSMOS 482 DESCENT CRAFT